Content
SEND FEEDBACK

Daily
Averages
Monthly
Summary
Canada

MONTREAL, QUEBEC


Home > North America > Canada > Quebec
Elevation: 118 feet     Latitude: 45 28N     Longitude: 073 45W

WEATHER
 
SELECT A DAY
Number of Records: 201,418;   Date Range: 1/1/95 - 10/20/14
 
SHARE

PRINT THIS DATA

[ ← Previous Day ]
WEATHER ALMANAC - APRIL 21, 2013
[ Next Day → ]
[ °C ]   °F
Weather ElementAverageHighLow
Temperature35.4 °F42.8 °F (4:00 pm)28.4 °F (5:00 am)
Dewpoint14.3 °F19.4 °F (10:00 pm)10.4 °F (9:00 am)
Humidity40.8 %55 % (3:00 am)20 % (2:00 pm)
Barometer30.58 in30.71 in (11:00 pm)30.32 in (1:00 am)
Wind Speed9 mph12.7 mph (1:00 am)
Wind Gust21.9 mph (1:00 am)
Weather ElementAverage
Visibility22.6 mi
Wind DirectionWSW (255.2 °)

Weather ElementTotal
Precipitation---
Heating Degree Days29.4 (Base 65)
Averaged from 27 records on April 21, 2013
WEATHER CONDITIONS BREAKOUT
WIND DIRECTION BREAKOUT
WEATHER BY HOUR - APRIL 21, 2013
[ °C ]   °F
Local TimeTemperatureDewpointHumidityBarometerVisibilityWind DirectionWind SpeedGust SpeedPrecipitationEventsConditions
1:00 AM32.0 °F15.8 °F51 %30.32 in15.0 miWNW (290°)12.7 mph21.9 mphMostly Cloudy
2:00 AM31.0 °F16.0 °F40 %30.35 in15.0 miWest (280°)12.7 mphScattered Clouds
2:00 AM32.0 °F15.8 °F51 %30.35 in15.0 miWest (280°)11.5 mph20.7 mphMostly Cloudy
3:00 AM30.2 °F15.8 °F55 %30.38 in15.0 miWNW (290°)11.5 mph18.4 mphMostly Cloudy
4:00 AM30.2 °F12.2 °F47 %30.41 in15.0 miWNW (300°)11.5 mphScattered Clouds
5:00 AM28.4 °F12.2 °F51 %30.45 in15.0 miWNW (290°)10.4 mph17.3 mphPartly Cloudy
6:00 AM28.4 °F12.2 °F51 %30.49 in15.0 miWNW (300°)10.4 mphPartly Cloudy
7:00 AM28.4 °F14.0 °F55 %30.54 in15.0 miWNW (300°)10.4 mphClear
8:00 AM30.0 °F11.0 °F32 %30.59 in15.0 miNW (310°)12.7 mphScattered Clouds
8:00 AM30.2 °F12.2 °F47 %30.58 in15.0 miNW (310°)12.7 mphClear
9:00 AM30.2 °F10.4 °F44 %30.62 in30.0 miNNW (330°)5.8 mphClear
10:00 AM32.0 °F12.2 °F44 %30.64 in30.0 miWest (280°)3.5 mphClear
11:00 AM35.6 °F12.2 °F38 %30.66 in30.0 miWest (280°)11.5 mphClear
12:00 PM35.6 °F12.2 °F38 %30.66 in30.0 miWNW (300°)9.2 mphClear
1:00 PM37.4 °F12.2 °F36 %30.66 in30.0 miNW (320°)6.9 mphClear
2:00 PM40.0 °F13.0 °F20 %30.66 in28.0 miWSW (250°)10.4 mph
2:00 PM39.2 °F12.2 °F33 %30.66 in30.0 miWSW (250°)12.7 mphClear
3:00 PM41.0 °F15.8 °F36 %30.66 in30.0 miWSW (240°)6.9 mphClear
4:00 PM42.8 °F15.8 °F34 %30.65 in30.0 miSSW (210°)9.2 mphClear
5:00 PM42.8 °F14.0 °F31 %30.65 in30.0 miSW (220°)8.1 mphClear
6:00 PM42.8 °F15.8 °F34 %30.65 in30.0 miSSW (200°)6.9 mphClear
7:00 PM41.0 °F14.0 °F33 %30.66 in30.0 miSSW (210°)6.9 mphClear
8:00 PM39.0 °F16.0 °F26 %30.67 in28.0 miSSW (200°)5.8 mphClear
8:00 PM39.2 °F15.8 °F39 %30.67 in30.0 miSSW (200°)6.9 mphClear
9:00 PM39.2 °F17.6 °F42 %30.69 in15.0 miSouth (170°)5.8 mphClear
10:00 PM39.2 °F19.4 °F45 %30.70 in15.0 miSE (130°)4.6 mphClear
11:00 PM37.4 °F19.4 °F48 %30.71 in15.0 miSSE (150°)4.6 mphClear
Hourly data recorded from CYUL, located miles away from Montreal, Quebec







STORIES FROM OUR PARTNERS